contact:dominique.lefevre@mio.osupytheas.fr, maurice.libes@osupytheas.fr, didier.mallarino@osupytheas.fr
Project:EMSO http://www.emso-fr.org/EMSO-France
Depth: 2436.0 m
Title:EMSO Ligure Ouest : Data MII capteur AQUADOPP
Date,Latitude,Longitude,X_East,Y_North,Z_Up,Amplitude_X,Amplitude_Y,Amplitude_Z,Batterie,SoundSpeed,Heading,Pitch,Roll,Pressure,TIS,Speed,Direction
, degrees North, degrees East, m.s-1, m.s-1,m.s-1, 1, 1, 1, Volt, m.s-1, degree, degree, degree, dbar, degree_C, m.s-1, degree
2020-02-20T00:04:03,42.805,6.029,0.05,0.029,-0.02,103.0,112.0,101.0,13.4,1505.2,322.8,-0.7,1.8,2470.165,13.3,0.057,59.9
2020-02-20T00:07:03,42.805,6.029,0.053,0.014,-0.024,104.0,111.0,102.0,13.4,1505.3,324.5,-0.7,1.8,2470.127,13.31,0.054,75.2
2020-02-20T00:10:03,42.805,6.029,0.019,0.041,-0.026,104.0,111.0,102.0,13.4,1505.3,327.5,-0.7,1.9,2470.151,13.32,0.045,24.9
2020-02-20T00:13:03,42.805,6.029,0.014,0.046,-0.014,103.0,113.0,101.0,13.4,1505.3,328.0,-0.7,1.8,2470.147,13.32,0.048,16.9
2020-02-20T00:16:03,42.805,6.029,0.025,0.01,-0.051,104.0,115.0,101.0,13.4,1505.3,326.5,-0.7,1.8,2470.138,13.32,0.026,68.2
2020-02-20T00:19:03,42.805,6.029,0.05,0.021,-0.034,105.0,111.0,100.0,13.4,1505.3,325.1,-0.7,1.8,2470.085,13.32,0.054,67.2
2020-02-20T00:22:03,42.805,6.029,0.023,0.004,-0.036,103.0,114.0,101.0,13.4,1505.3,325.2,-0.7,1.8,2470.071,13.32,0.023,80.1
2020-02-20T00:25:03,42.805,6.029,0.022,0.02,-0.042,103.0,111.0,101.0,13.4,1505.3,323.7,-0.7,1.8,2470.129,13.32,0.029,47.7
2020-02-20T00:28:03,42.805,6.029,0.031,0.009,-0.02,103.0,112.0,101.0,13.4,1505.3,326.3,-0.7,1.8,2470.129,13.32,0.032,73.8
2020-02-20T00:31:03,42.805,6.029,0.048,-0.007,-0.041,102.0,113.0,102.0,13.4,1505.3,326.2,-0.7,1.8,2470.103,13.32,0.048,98.3
2020-02-20T00:34:03,42.805,6.029,0.058,0.008,-0.065,104.0,114.0,101.0,13.3,1505.3,326.9,-0.7,1.8,2470.122,13.32,0.058,82.2
2020-02-20T00:37:03,42.805,6.029,0.035,0.007,-0.02,104.0,114.0,101.0,13.3,1505.3,326.2,-0.7,1.8,2470.125,13.32,0.035,78.7
2020-02-20T00:40:03,42.805,6.029,0.035,0.0,0.014,104.0,113.0,101.0,13.4,1505.3,323.4,-0.7,1.8,2470.142,13.32,0.035,90.0
2020-02-20T00:43:03,42.805,6.029,0.029,-0.003,-0.004,104.0,111.0,102.0,13.3,1505.3,326.9,-0.7,1.8,2470.094,13.32,0.029,95.9
2020-02-20T00:46:03,42.805,6.029,0.03,-0.009,-0.014,103.0,113.0,101.0,13.4,1505.3,327.1,-0.7,1.9,2470.126,13.32,0.031,106.7
2020-02-20T00:49:03,42.805,6.029,0.056,0.028,0.004,104.0,112.0,101.0,13.4,1505.3,325.6,-0.7,1.8,2470.115,13.32,0.062,63.4
2020-02-20T00:52:03,42.805,6.029,0.04,0.006,-0.007,104.0,111.0,102.0,13.3,1505.3,324.2,-0.7,1.8,2470.111,13.32,0.04,81.5
2020-02-20T00:55:03,42.805,6.029,0.027,0.024,-0.04,103.0,113.0,101.0,13.4,1505.3,323.7,-0.7,1.8,2470.105,13.32,0.036,48.4
2020-02-20T00:58:03,42.805,6.029,0.035,0.027,-0.02,103.0,114.0,102.0,13.3,1505.3,327.7,-0.7,1.8,2470.111,13.32,0.044,52.3
2020-02-20T01:04:03,42.805,6.029,0.034,0.012,-0.028,106.0,111.0,102.0,13.4,1505.2,325.6,-0.8,1.8,2470.144,13.3,0.036,70.6
2020-02-20T01:07:03,42.805,6.029,0.027,0.02,-0.013,103.0,110.0,103.0,13.4,1505.3,323.8,-0.7,1.9,2470.144,13.31,0.033,53.5
2020-02-20T01:10:03,42.805,6.029,0.027,-0.003,-0.063,105.0,111.0,102.0,13.4,1505.3,324.9,-0.7,1.8,2470.151,13.32,0.027,96.3
2020-02-20T01:13:03,42.805,6.029,0.024,0.012,-0.018,104.0,113.0,101.0,13.4,1505.3,327.3,-0.7,1.8,2470.176,13.32,0.026,63.4
2020-02-20T01:16:03,42.805,6.029,0.021,0.012,-0.009,104.0,112.0,101.0,13.3,1505.3,322.9,-0.7,1.8,2470.161,13.32,0.024,60.3
2020-02-20T01:19:03,42.805,6.029,0.055,0.005,-0.001,104.0,113.0,101.0,13.4,1505.3,328.3,-0.7,1.8,2470.118,13.32,0.055,84.8
2020-02-20T01:22:03,42.805,6.029,0.034,0.011,-0.01,104.0,112.0,102.0,13.3,1505.3,326.3,-0.7,1.8,2470.14,13.32,0.035,72.1
2020-02-20T01:25:03,42.805,6.029,0.036,0.015,-0.038,104.0,110.0,102.0,13.3,1505.3,324.3,-0.7,1.8,2470.151,13.32,0.039,67.4
2020-02-20T01:28:03,42.805,6.029,0.019,0.026,-0.025,104.0,111.0,102.0,13.4,1505.3,325.9,-0.7,1.8,2470.155,13.32,0.032,36.2
2020-02-20T01:31:03,42.805,6.029,0.039,-0.003,-0.05,104.0,111.0,102.0,13.4,1505.3,326.9,-0.7,1.9,2470.076,13.32,0.039,94.4
2020-02-20T01:34:03,42.805,6.029,0.015,0.018,-0.02,104.0,112.0,101.0,13.4,1505.3,326.0,-0.7,1.8,2470.14,13.32,0.023,39.8
2020-02-20T01:37:03,42.805,6.029,0.021,-0.01,-0.004,104.0,111.0,101.0,13.4,1505.3,327.5,-0.7,1.8,2470.152,13.32,0.023,115.5
2020-02-20T01:40:03,42.805,6.029,0.019,0.009,-0.06,104.0,109.0,99.0,13.3,1505.3,326.5,-0.7,1.8,2470.119,13.32,0.021,64.7
2020-02-20T01:43:03,42.805,6.029,0.024,0.031,-0.018,105.0,109.0,100.0,13.4,1505.3,326.3,-0.7,1.9,2470.122,13.32,0.039,37.7
2020-02-20T01:46:03,42.805,6.029,0.028,0.005,-0.014,103.0,111.0,102.0,13.4,1505.3,326.7,-0.7,1.9,2470.183,13.32,0.028,79.9
2020-02-20T01:49:03,42.805,6.029,0.042,-0.01,-0.011,103.0,112.0,100.0,13.3,1505.3,328.5,-0.7,1.9,2470.138,13.32,0.043,103.4
2020-02-20T01:52:03,42.805,6.029,0.041,-0.003,-0.001,104.0,109.0,102.0,13.3,1505.3,325.6,-0.7,1.8,2470.157,13.32,0.041,94.2
2020-02-20T01:55:03,42.805,6.029,0.006,0.014,-0.032,104.0,112.0,101.0,13.4,1505.3,328.5,-0.7,1.9,2470.163,13.32,0.015,23.2
2020-02-20T01:58:03,42.805,6.029,0.038,0.017,-0.049,104.0,111.0,101.0,13.4,1505.3,324.2,-0.7,1.9,2470.163,13.32,0.041,65.9
2020-02-20T02:04:03,42.805,6.029,0.03,-0.003,-0.019,104.0,110.0,102.0,13.4,1505.2,327.5,-0.7,1.8,2470.191,13.3,0.03,95.7
2020-02-20T02:07:03,42.805,6.029,0.041,0.014,-0.057,105.0,110.0,101.0,13.4,1505.3,322.7,-0.7,1.8,2470.176,13.31,0.043,71.1
2020-02-20T02:10:03,42.805,6.029,0.038,0.007,-0.036,104.0,111.0,102.0,13.3,1505.3,325.2,-0.7,1.8,2470.173,13.31,0.038,79.6
2020-02-20T02:13:03,42.805,6.029,0.066,0.013,0.0,104.0,111.0,101.0,13.3,1505.3,325.5,-0.7,1.9,2470.21,13.32,0.067,78.9
2020-02-20T02:16:03,42.805,6.029,0.025,0.004,-0.039,104.0,109.0,102.0,13.3,1505.3,325.1,-0.7,1.8,2470.189,13.32,0.025,80.9
2020-02-20T02:19:03,42.805,6.029,0.057,-0.002,-0.031,104.0,110.0,101.0,13.4,1505.3,328.0,-0.7,1.9,2470.199,13.32,0.057,92.0
2020-02-20T02:22:03,42.805,6.029,0.054,0.016,-0.006,104.0,108.0,100.0,13.3,1505.3,327.7,-0.7,1.8,2470.171,13.32,0.056,73.5
2020-02-20T02:25:03,42.805,6.029,0.043,-0.002,-0.011,104.0,112.0,101.0,13.3,1505.3,328.6,-0.7,1.8,2470.17,13.32,0.043,92.7
2020-02-20T02:28:03,42.805,6.029,0.03,0.0,-0.017,104.0,110.0,101.0,13.4,1505.3,326.9,-0.7,1.8,2470.227,13.32,0.03,90.0
2020-02-20T02:31:03,42.805,6.029,0.036,0.0,-0.012,104.0,108.0,100.0,13.4,1505.3,325.3,-0.7,1.8,2470.179,13.32,0.036,90.0
2020-02-20T02:34:03,42.805,6.029,0.038,0.007,-0.01,104.0,111.0,102.0,13.4,1505.3,324.0,-0.7,1.8,2470.201,13.32,0.038,79.6
2020-02-20T02:37:03,42.805,6.029,0.054,-0.008,-0.023,102.0,111.0,101.0,13.3,1505.3,327.8,-0.7,1.8,2470.171,13.32,0.054,98.4
2020-02-20T02:40:03,42.805,6.029,0.034,0.008,0.008,104.0,111.0,101.0,13.3,1505.3,327.0,-0.7,1.8,2470.199,13.32,0.034,76.8
2020-02-20T02:43:03,42.805,6.029,0.036,-0.006,-0.017,105.0,109.0,101.0,13.3,1505.3,324.5,-0.7,1.9,2470.152,13.32,0.036,99.5
2020-02-20T02:46:03,42.805,6.029,0.058,-0.003,-0.012,103.0,108.0,101.0,13.3,1505.3,328.7,-0.7,1.8,2470.184,13.32,0.058,93.0
2020-02-20T02:49:03,42.805,6.029,0.05,0.004,-0.027,104.0,110.0,101.0,13.3,1505.3,324.4,-0.7,1.9,2470.224,13.32,0.05,85.4
2020-02-20T02:52:03,42.805,6.029,0.029,-0.012,-0.049,104.0,107.0,102.0,13.4,1505.3,325.7,-0.7,1.8,2470.201,13.32,0.031,112.5
2020-02-20T02:55:03,42.805,6.029,0.042,0.019,-0.025,104.0,109.0,102.0,13.4,1505.3,324.8,-0.7,1.8,2470.222,13.32,0.046,65.7
2020-02-20T02:58:03,42.805,6.029,0.074,-0.012,-0.019,104.0,108.0,101.0,13.4,1505.3,327.1,-0.7,1.8,2470.211,13.32,0.074,99.2
2020-02-20T03:04:03,42.805,6.029,0.046,0.0,-0.006,103.0,108.0,101.0,13.3,1505.2,328.0,-0.7,1.8,2470.268,13.3,0.046,90.0
2020-02-20T03:07:03,42.805,6.029,0.029,0.019,-0.014,102.0,109.0,101.0,13.3,1505.3,325.0,-0.7,1.8,2470.271,13.31,0.034,56.8
2020-02-20T03:10:03,42.805,6.029,0.043,-0.001,-0.028,104.0,108.0,101.0,13.4,1505.3,326.6,-0.7,1.8,2470.253,13.31,0.043,91.3
2020-02-20T03:13:03,42.805,6.029,0.033,0.009,-0.033,103.0,109.0,101.0,13.3,1505.3,323.6,-0.7,1.8,2470.233,13.32,0.034,74.7
2020-02-20T03:16:03,42.805,6.029,0.019,-0.012,-0.072,104.0,109.0,101.0,13.3,1505.3,325.9,-0.7,1.8,2470.241,13.32,0.022,122.3
2020-02-20T03:19:03,42.805,6.029,0.057,0.01,0.002,103.0,108.0,102.0,13.4,1505.3,324.7,-0.7,1.8,2470.223,13.32,0.057,80.1
2020-02-20T03:22:03,42.805,6.029,0.021,-0.003,-0.045,104.0,107.0,101.0,13.3,1505.3,325.5,-0.7,1.8,2470.251,13.32,0.021,98.1
2020-02-20T03:25:03,42.805,6.029,0.044,-0.01,-0.043,104.0,109.0,103.0,13.4,1505.3,324.3,-0.7,1.8,2470.279,13.32,0.045,102.8
2020-02-20T03:28:03,42.805,6.029,0.029,0.013,-0.04,103.0,106.0,102.0,13.4,1505.3,328.0,-0.7,1.8,2470.249,13.32,0.031,65.9
2020-02-20T03:31:03,42.805,6.029,0.051,-0.001,-0.026,103.0,110.0,102.0,13.4,1505.3,324.8,-0.7,1.8,2470.29,13.32,0.051,91.1
2020-02-20T03:34:03,42.805,6.029,0.044,0.01,0.003,104.0,109.0,101.0,13.3,1505.3,326.2,-0.7,1.9,2470.228,13.32,0.045,77.2
2020-02-20T03:37:03,42.805,6.029,0.031,0.01,-0.034,104.0,109.0,101.0,13.3,1505.3,323.8,-0.7,1.8,2470.209,13.32,0.032,72.1
2020-02-20T03:40:03,42.805,6.029,0.037,-0.024,-0.03,104.0,108.0,101.0,13.3,1505.3,322.8,-0.7,1.8,2470.249,13.32,0.044,123.0
2020-02-20T03:43:03,42.805,6.029,0.045,-0.002,-0.047,106.0,109.0,101.0,13.4,1505.3,323.8,-0.7,1.8,2470.254,13.32,0.045,92.5
2020-02-20T03:46:03,42.805,6.029,0.052,-0.016,-0.014,103.0,108.0,102.0,13.4,1505.3,326.8,-0.7,1.8,2470.254,13.32,0.054,107.1
2020-02-20T03:49:03,42.805,6.029,0.061,-0.011,-0.043,104.0,107.0,102.0,13.4,1505.3,324.5,-0.7,1.8,2470.23,13.32,0.061,100.2
2020-02-20T03:52:03,42.805,6.029,0.04,0.007,-0.019,104.0,109.0,100.0,13.4,1505.3,325.1,-0.7,1.8,2470.282,13.32,0.04,80.1
2020-02-20T03:55:03,42.805,6.029,0.029,0.022,-0.05,104.0,107.0,101.0,13.4,1505.3,325.9,-0.7,1.8,2470.242,13.32,0.036,52.8
2020-02-20T03:58:03,42.805,6.029,0.024,0.002,-0.038,103.0,108.0,102.0,13.4,1505.3,324.3,-0.7,1.9,2470.226,13.32,0.024,85.2
2020-02-20T04:04:03,42.805,6.029,0.03,0.007,-0.007,104.0,107.0,101.0,13.4,1505.2,326.8,-0.7,1.8,2470.27,13.3,0.03,76.9
2020-02-20T04:07:03,42.805,6.029,0.071,-0.012,0.005,104.0,108.0,102.0,13.4,1505.3,327.1,-0.7,1.8,2470.301,13.31,0.072,99.6
2020-02-20T04:10:03,42.805,6.029,0.033,0.002,-0.028,105.0,109.0,101.0,13.4,1505.3,324.4,-0.7,1.8,2470.247,13.31,0.033,86.5
2020-02-20T04:13:03,42.805,6.029,0.052,0.001,-0.016,104.0,109.0,102.0,13.4,1505.3,326.4,-0.7,1.9,2470.287,13.32,0.052,88.9
2020-02-20T04:16:03,42.805,6.029,0.052,0.0,0.002,103.0,109.0,103.0,13.4,1505.3,323.1,-0.7,1.8,2470.3,13.32,0.052,90.0
2020-02-20T04:19:03,42.805,6.029,0.07,-0.006,-0.012,104.0,108.0,102.0,13.4,1505.3,328.6,-0.7,1.8,2470.268,13.32,0.07,94.9
2020-02-20T04:22:03,42.805,6.029,0.015,-0.002,-0.047,102.0,107.0,103.0,13.3,1505.3,325.5,-0.7,1.8,2470.286,13.32,0.015,97.6
2020-02-20T04:25:03,42.805,6.029,0.067,0.018,0.017,104.0,106.0,102.0,13.3,1505.3,326.0,-0.7,1.8,2470.286,13.32,0.069,75.0
2020-02-20T04:28:03,42.805,6.029,0.04,-0.013,-0.041,105.0,107.0,101.0,13.4,1505.3,327.6,-0.7,1.8,2470.295,13.32,0.042,108.0
2020-02-20T04:31:03,42.805,6.029,0.027,0.0,-0.04,105.0,108.0,101.0,13.3,1505.3,324.1,-0.7,1.9,2470.276,13.32,0.026,90.0
2020-02-20T04:34:03,42.805,6.029,0.015,-0.019,-0.027,104.0,106.0,101.0,13.4,1505.3,326.4,-0.7,1.8,2470.283,13.32,0.024,141.7
2020-02-20T04:37:03,42.805,6.029,0.054,-0.005,-0.025,104.0,106.0,102.0,13.3,1505.3,322.9,-0.7,1.8,2470.3,13.32,0.054,95.3
2020-02-20T04:40:03,42.805,6.029,0.045,-0.005,0.005,104.0,107.0,102.0,13.4,1505.3,326.9,-0.7,1.8,2470.283,13.32,0.045,96.3
2020-02-20T04:43:03,42.805,6.029,0.046,-0.012,-0.034,104.0,107.0,102.0,13.3,1505.3,325.0,-0.7,1.8,2470.229,13.32,0.047,104.6
2020-02-20T04:46:03,42.805,6.029,0.054,0.002,-0.044,103.0,106.0,100.0,13.4,1505.3,323.7,-0.7,1.8,2470.304,13.32,0.054,87.9
2020-02-20T04:49:03,42.805,6.029,0.068,0.006,-0.023,104.0,107.0,101.0,13.3,1505.3,324.9,-0.7,1.8,2470.275,13.32,0.068,85.0
2020-02-20T04:52:03,42.805,6.029,0.032,-0.008,-0.059,105.0,109.0,100.0,13.4,1505.3,324.5,-0.7,1.8,2470.29,13.32,0.032,104.0
2020-02-20T04:55:03,42.805,6.029,0.038,-0.015,-0.022,104.0,106.0,101.0,13.3,1505.3,328.3,-0.7,1.9,2470.28,13.32,0.04,111.5
2020-02-20T04:58:03,42.805,6.029,0.046,0.025,-0.044,104.0,108.0,101.0,13.3,1505.3,325.9,-0.7,1.8,2470.289,13.32,0.052,61.5
2020-02-20T05:04:03,42.805,6.029,0.072,0.003,-0.029,104.0,109.0,102.0,13.4,1505.2,326.8,-0.7,1.9,2470.345,13.3,0.072,87.6
2020-02-20T05:07:03,42.805,6.029,0.06,-0.004,-0.026,104.0,106.0,101.0,13.4,1505.3,323.5,-0.7,1.8,2470.315,13.31,0.06,93.8
2020-02-20T05:10:03,42.805,6.029,0.045,0.004,-0.035,105.0,108.0,101.0,13.4,1505.3,326.4,-0.7,1.8,2470.325,13.32,0.045,84.9
2020-02-20T05:13:03,42.805,6.029,0.055,0.0,-0.049,104.0,107.0,102.0,13.4,1505.3,328.3,-0.7,1.9,2470.301,13.32,0.055,90.0
2020-02-20T05:16:03,42.805,6.029,0.052,0.005,-0.006,103.0,106.0,101.0,13.4,1505.3,327.3,-0.7,1.9,2470.301,13.32,0.052,84.5
2020-02-20T05:19:03,42.805,6.029,0.038,0.007,-0.022,103.0,109.0,102.0,13.4,1505.3,327.9,-0.7,1.9,2470.321,13.32,0.038,79.6
2020-02-20T05:22:03,42.805,6.029,0.054,0.012,-0.007,103.0,107.0,102.0,13.3,1505.3,327.3,-0.7,1.8,2470.336,13.32,0.055,77.5
2020-02-20T05:25:03,42.805,6.029,0.049,-0.001,-0.024,104.0,108.0,101.0,13.4,1505.3,325.4,-0.7,1.8,2470.342,13.32,0.049,91.2
2020-02-20T05:28:03,42.805,6.029,0.063,-0.008,-0.013,103.0,107.0,102.0,13.3,1505.3,323.7,-0.7,1.9,2470.305,13.32,0.063,97.2
2020-02-20T05:31:03,42.805,6.029,0.06,0.003,-0.008,104.0,108.0,101.0,13.4,1505.3,325.7,-0.7,1.8,2470.305,13.32,0.06,87.1
2020-02-20T05:34:03,42.805,6.029,0.044,-0.003,-0.039,104.0,107.0,101.0,13.4,1505.3,324.9,-0.7,1.9,2470.288,13.32,0.044,93.9
2020-02-20T05:37:03,42.805,6.029,0.05,0.0,-0.013,104.0,108.0,102.0,13.4,1505.3,328.3,-0.7,1.8,2470.301,13.32,0.05,90.0
2020-02-20T05:40:03,42.805,6.029,0.03,0.002,-0.018,104.0,108.0,100.0,13.4,1505.3,326.2,-0.7,1.8,2470.327,13.32,0.03,86.2
2020-02-20T05:43:03,42.805,6.029,0.072,0.003,-0.014,103.0,106.0,102.0,13.4,1505.3,323.7,-0.8,1.8,2470.292,13.32,0.072,87.6
2020-02-20T05:46:03,42.805,6.029,0.045,0.013,-0.038,105.0,107.0,101.0,13.3,1505.3,323.2,-0.7,1.8,2470.303,13.32,0.046,73.9
2020-02-20T05:49:03,42.805,6.029,0.041,0.0,-0.019,104.0,107.0,102.0,13.4,1505.3,325.6,-0.7,1.8,2470.293,13.32,0.041,90.0
2020-02-20T05:52:03,42.805,6.029,0.047,0.017,-0.011,105.0,106.0,102.0,13.3,1505.3,325.6,-0.7,1.8,2470.297,13.32,0.049,70.1
2020-02-20T05:55:03,42.805,6.029,0.031,0.012,-0.019,104.0,108.0,102.0,13.4,1505.3,324.5,-0.7,1.8,2470.284,13.32,0.033,68.8
2020-02-20T05:58:03,42.805,6.029,0.035,0.024,-0.007,105.0,108.0,102.0,13.4,1505.3,325.9,-0.7,1.8,2470.336,13.32,0.042,55.6
2020-02-20T06:04:03,42.805,6.029,0.04,-0.004,-0.033,104.0,106.0,101.0,13.4,1505.2,324.1,-0.7,1.8,2470.361,13.3,0.04,95.7
2020-02-20T06:07:03,42.805,6.029,0.024,0.002,-0.019,105.0,108.0,101.0,13.4,1505.3,327.4,-0.7,1.8,2470.365,13.31,0.024,85.2
2020-02-20T06:10:03,42.805,6.029,0.045,0.024,-0.013,104.0,107.0,101.0,13.4,1505.3,326.8,-0.7,1.8,2470.348,13.32,0.051,61.9
2020-02-20T06:13:03,42.805,6.029,0.03,0.01,-0.043,104.0,107.0,101.0,13.4,1505.3,325.1,-0.7,1.8,2470.327,13.32,0.031,71.6
2020-02-20T06:16:03,42.805,6.029,0.017,0.013,-0.036,106.0,108.0,100.0,13.3,1505.3,324.7,-0.7,1.8,2470.306,13.32,0.021,52.6
2020-02-20T06:19:03,42.805,6.029,0.045,0.018,-0.021,105.0,105.0,100.0,13.4,1505.3,325.6,-0.7,1.8,2470.298,13.32,0.048,68.2
2020-02-20T06:22:03,42.805,6.029,0.053,-0.013,-0.006,103.0,106.0,101.0,13.3,1505.3,326.5,-0.7,1.9,2470.29,13.32,0.054,103.8
2020-02-20T06:25:03,42.805,6.029,0.044,0.013,-0.008,105.0,108.0,101.0,13.4,1505.3,327.8,-0.7,1.8,2470.307,13.32,0.045,73.5
2020-02-20T06:28:03,42.805,6.029,0.044,0.006,-0.019,105.0,105.0,101.0,13.4,1505.3,325.8,-0.7,1.8,2470.269,13.32,0.044,82.2
2020-02-20T06:31:03,42.805,6.029,0.055,-0.005,-0.021,103.0,106.0,102.0,13.4,1505.3,326.9,-0.7,1.8,2470.297,13.32,0.055,95.2
2020-02-20T06:34:03,42.805,6.029,0.051,0.007,-0.04,104.0,106.0,101.0,13.4,1505.3,323.4,-0.7,1.8,2470.325,13.32,0.051,82.2
2020-02-20T06:37:03,42.805,6.029,0.066,0.022,-0.03,104.0,105.0,101.0,13.4,1505.3,327.7,-0.7,1.8,2470.309,13.32,0.069,71.6
2020-02-20T06:40:03,42.805,6.029,0.035,-0.01,-0.032,104.0,106.0,100.0,13.4,1505.3,326.0,-0.7,1.9,2470.325,13.32,0.036,105.9
2020-02-20T06:43:03,42.805,6.029,0.037,-0.006,-0.043,102.0,105.0,100.0,13.4,1505.3,327.3,-0.7,1.8,2470.309,13.32,0.037,99.2
2020-02-20T06:46:03,42.805,6.029,0.051,-0.006,-0.039,104.0,104.0,101.0,13.4,1505.3,323.5,-0.7,1.8,2470.283,13.32,0.051,96.7
2020-02-20T06:49:03,42.805,6.029,0.07,-0.007,-0.004,103.0,103.0,100.0,13.4,1505.3,325.2,-0.7,1.8,2470.302,13.32,0.07,95.7
2020-02-20T06:52:03,42.805,6.029,0.05,0.007,-0.017,103.0,106.0,101.0,13.4,1505.3,328.4,-0.7,1.8,2470.291,13.32,0.05,82.0
2020-02-20T06:55:03,42.805,6.029,0.035,-0.012,-0.05,104.0,105.0,101.0,13.3,1505.3,328.1,-0.7,1.9,2470.329,13.32,0.037,108.9
2020-02-20T06:58:03,42.805,6.029,0.035,0.002,-0.041,102.0,105.0,102.0,13.4,1505.3,326.4,-0.7,1.8,2470.302,13.32,0.035,86.7
2020-02-20T07:04:03,42.805,6.029,0.038,-0.013,-0.021,105.0,106.0,101.0,13.4,1505.2,323.9,-0.7,1.9,2470.388,13.3,0.04,108.9
2020-02-20T07:07:03,42.805,6.029,0.047,0.02,0.008,104.0,106.0,101.0,13.4,1505.3,323.3,-0.7,1.8,2470.355,13.31,0.051,67.0
2020-02-20T07:10:03,42.805,6.029,0.025,-0.015,-0.027,103.0,107.0,101.0,13.4,1505.3,328.5,-0.7,1.9,2470.302,13.31,0.029,121.0
2020-02-20T07:13:03,42.805,6.029,0.049,-0.016,-0.032,104.0,105.0,100.0,13.4,1505.3,325.4,-0.7,1.8,2470.302,13.32,0.051,108.1
2020-02-20T07:16:03,42.805,6.029,0.044,0.001,-0.055,104.0,105.0,102.0,13.4,1505.3,322.8,-0.7,1.8,2470.305,13.32,0.044,88.7
2020-02-20T07:19:03,42.805,6.029,0.05,-0.022,-0.036,103.0,107.0,101.0,13.3,1505.3,325.5,-0.7,1.9,2470.332,13.32,0.054,113.7
2020-02-20T07:22:03,42.805,6.029,0.05,0.012,-0.021,102.0,108.0,100.0,13.4,1505.3,327.2,-0.7,1.8,2470.354,13.32,0.051,76.5
2020-02-20T07:25:03,42.805,6.029,0.039,0.0,-0.014,102.0,105.0,101.0,13.4,1505.3,326.0,-0.7,1.8,2470.303,13.32,0.039,90.0
2020-02-20T07:28:03,42.805,6.029,0.035,-0.002,-0.011,103.0,107.0,102.0,13.4,1505.3,325.9,-0.7,1.8,2470.294,13.32,0.035,93.3
2020-02-20T07:31:03,42.805,6.029,0.043,-0.016,-0.045,105.0,107.0,101.0,13.3,1505.3,324.8,-0.7,1.8,2470.316,13.32,0.045,110.4
2020-02-20T07:34:03,42.805,6.029,0.057,0.003,-0.039,103.0,107.0,101.0,13.3,1505.3,324.0,-0.7,1.8,2470.271,13.32,0.057,87.0
2020-02-20T07:37:03,42.805,6.029,0.041,-0.019,-0.043,105.0,107.0,102.0,13.4,1505.3,325.7,-0.7,1.8,2470.287,13.32,0.045,114.9
2020-02-20T07:40:03,42.805,6.029,0.067,0.007,-0.026,103.0,106.0,100.0,13.4,1505.3,326.3,-0.7,1.8,2470.288,13.32,0.067,84.0
2020-02-20T07:43:03,42.805,6.029,0.061,-0.008,-0.018,104.0,105.0,100.0,13.4,1505.3,326.2,-0.7,1.8,2470.253,13.32,0.061,97.5
2020-02-20T07:46:03,42.805,6.029,0.044,-0.003,-0.045,105.0,105.0,100.0,13.4,1505.3,324.3,-0.7,1.9,2470.29,13.32,0.044,93.9
2020-02-20T07:49:03,42.805,6.029,0.045,-0.01,-0.035,104.0,106.0,101.0,13.4,1505.3,327.1,-0.7,1.8,2470.284,13.32,0.046,102.5
2020-02-20T07:52:03,42.805,6.029,0.065,-0.011,-0.006,104.0,106.0,101.0,13.4,1505.3,324.3,-0.7,1.8,2470.253,13.32,0.065,99.6
2020-02-20T07:55:03,42.805,6.029,0.049,0.01,-0.008,104.0,105.0,103.0,13.3,1505.3,324.7,-0.7,1.8,2470.284,13.32,0.05,78.5
2020-02-20T07:58:03,42.805,6.029,0.046,0.001,-0.034,104.0,104.0,101.0,13.4,1505.3,326.3,-0.7,1.8,2470.252,13.32,0.046,88.8
2020-02-20T08:04:03,42.805,6.029,0.023,0.005,-0.035,103.0,106.0,101.0,13.4,1505.2,322.8,-0.7,1.8,2470.35,13.3,0.023,77.7
2020-02-20T08:07:03,42.805,6.029,0.038,0.0,-0.076,104.0,107.0,101.0,13.4,1505.3,326.5,-0.7,1.8,2470.296,13.31,0.038,90.0
2020-02-20T08:10:03,42.805,6.029,0.057,0.003,0.001,103.0,107.0,101.0,13.4,1505.3,326.5,-0.7,1.8,2470.3,13.31,0.057,87.0
2020-02-20T08:13:03,42.805,6.029,0.069,0.009,-0.008,104.0,105.0,101.0,13.3,1505.3,324.0,-0.7,1.8,2470.28,13.32,0.069,82.6
2020-02-20T08:16:03,42.805,6.029,0.048,-0.009,-0.012,103.0,105.0,101.0,13.4,1505.3,326.6,-0.7,1.9,2470.251,13.32,0.048,100.6
2020-02-20T08:19:03,42.805,6.029,0.039,-0.002,-0.035,105.0,106.0,101.0,13.4,1505.3,327.1,-0.7,1.8,2470.302,13.32,0.039,92.9
2020-02-20T08:22:03,42.805,6.029,0.044,-0.022,-0.022,104.0,106.0,101.0,13.3,1505.3,325.4,-0.7,1.9,2470.25,13.32,0.049,116.6
2020-02-20T08:25:03,42.805,6.029,0.032,0.003,-0.029,103.0,107.0,101.0,13.4,1505.3,325.0,-0.7,1.8,2470.309,13.32,0.032,84.6
2020-02-20T08:28:03,42.805,6.029,0.03,0.001,-0.014,103.0,107.0,101.0,13.3,1505.3,327.2,-0.7,1.8,2470.288,13.32,0.03,88.1
2020-02-20T08:31:03,42.805,6.029,0.042,0.011,-0.044,104.0,105.0,102.0,13.4,1505.3,324.3,-0.6,1.9,2470.226,13.32,0.043,75.3
2020-02-20T08:34:03,42.805,6.029,0.034,-0.003,-0.067,104.0,107.0,101.0,13.4,1505.3,323.1,-0.7,1.8,2470.29,13.32,0.034,95.0
2020-02-20T08:37:03,42.805,6.029,0.041,0.001,-0.02,105.0,108.0,101.0,13.4,1505.3,323.2,-0.7,1.8,2470.276,13.32,0.041,88.6
2020-02-20T08:40:03,42.805,6.029,0.042,-0.001,-0.021,104.0,108.0,102.0,13.4,1505.3,327.0,-0.7,1.9,2470.254,13.32,0.042,91.4
2020-02-20T08:43:03,42.805,6.029,0.04,-0.002,-0.02,103.0,107.0,101.0,13.4,1505.3,327.9,-0.8,1.8,2470.292,13.32,0.04,92.9
2020-02-20T08:46:03,42.805,6.029,0.027,0.025,-0.004,104.0,106.0,101.0,13.4,1505.3,324.9,-0.7,1.8,2470.278,13.32,0.036,47.2
2020-02-20T08:49:03,42.805,6.029,0.039,-0.016,-0.043,103.0,108.0,101.0,13.4,1505.3,326.2,-0.7,1.8,2470.263,13.32,0.042,112.3
2020-02-20T08:52:03,42.805,6.029,0.032,0.014,-0.026,103.0,106.0,101.0,13.3,1505.3,323.6,-0.7,1.8,2470.267,13.32,0.034,66.4
2020-02-20T08:55:03,42.805,6.029,0.037,0.018,-0.02,105.0,107.0,104.0,13.4,1505.3,323.8,-0.7,1.8,2470.286,13.32,0.041,64.1
2020-02-20T08:58:03,42.805,6.029,0.045,-0.001,-0.021,104.0,105.0,101.0,13.3,1505.3,324.2,-0.7,1.8,2470.268,13.32,0.045,91.3
2020-02-20T09:04:03,42.805,6.029,0.056,0.0,-0.004,104.0,105.0,101.0,13.4,1505.2,326.7,-0.8,1.8,2470.291,13.3,0.056,90.0
2020-02-20T09:07:03,42.805,6.029,0.071,-0.005,-0.031,102.0,106.0,100.0,13.3,1505.3,326.9,-0.7,1.9,2470.307,13.31,0.071,94.0
2020-02-20T09:10:03,42.805,6.029,0.051,-0.002,-0.023,104.0,107.0,100.0,13.3,1505.3,328.1,-0.7,1.9,2470.257,13.32,0.051,92.2
2020-02-20T09:13:03,42.805,6.029,0.02,0.011,-0.021,103.0,107.0,101.0,13.3,1505.3,325.8,-0.7,1.8,2470.259,13.32,0.022,61.2
2020-02-20T09:16:03,42.805,6.029,0.031,0.008,-0.028,104.0,108.0,101.0,13.4,1505.3,327.6,-0.7,1.8,2470.293,13.32,0.032,75.5
2020-02-20T09:19:03,42.805,6.029,0.039,0.003,-0.004,104.0,108.0,100.0,13.3,1505.3,326.7,-0.7,1.9,2470.307,13.32,0.039,85.6
2020-02-20T09:22:03,42.805,6.029,0.034,0.003,-0.034,104.0,107.0,102.0,13.4,1505.3,323.7,-0.7,1.8,2470.275,13.32,0.034,85.0
2020-02-20T09:25:03,42.805,6.029,0.062,-0.002,0.003,104.0,106.0,101.0,13.4,1505.3,326.0,-0.7,1.8,2470.223,13.32,0.062,91.8
2020-02-20T09:28:03,42.805,6.029,0.049,-0.002,-0.033,103.0,107.0,100.0,13.4,1505.3,325.0,-0.7,1.8,2470.228,13.32,0.049,92.3
2020-02-20T09:31:03,42.805,6.029,-0.004,0.004,-0.058,103.0,106.0,101.0,13.4,1505.3,325.9,-0.7,1.8,2470.241,13.32,0.005,315.0
2020-02-20T09:34:03,42.805,6.029,0.059,-0.003,-0.009,103.0,107.0,101.0,13.4,1505.3,326.4,-0.7,1.8,2470.246,13.32,0.059,92.9
2020-02-20T09:37:03,42.805,6.029,0.028,0.002,-0.012,104.0,107.0,101.0,13.4,1505.3,325.5,-0.7,1.8,2470.208,13.32,0.028,85.9
2020-02-20T09:40:03,42.805,6.029,0.032,-0.003,-0.022,104.0,106.0,101.0,13.4,1505.3,326.1,-0.7,1.8,2470.233,13.32,0.032,95.4
2020-02-20T09:43:03,42.805,6.029,0.042,0.002,-0.017,104.0,107.0,100.0,13.3,1505.3,326.9,-0.7,1.8,2470.266,13.32,0.042,87.3
2020-02-20T09:46:03,42.805,6.029,0.004,0.007,-0.047,103.0,107.0,102.0,13.4,1505.3,323.0,-0.7,1.8,2470.251,13.32,0.008,29.7
2020-02-20T09:49:03,42.805,6.029,0.03,-0.004,-0.026,104.0,107.0,101.0,13.4,1505.3,328.6,-0.7,1.8,2470.234,13.32,0.03,97.6
2020-02-20T09:52:03,42.805,6.029,0.055,0.02,0.025,103.0,108.0,101.0,13.3,1505.3,324.5,-0.7,1.8,2470.222,13.32,0.058,70.0
2020-02-20T09:55:03,42.805,6.029,0.057,0.01,-0.032,102.0,107.0,102.0,13.4,1505.3,325.1,-0.7,1.8,2470.258,13.32,0.057,80.1
2020-02-20T09:58:03,42.805,6.029,0.039,0.012,-0.022,102.0,108.0,101.0,13.4,1505.3,324.3,-0.7,1.8,2470.239,13.32,0.04,72.9
2020-02-20T10:04:03,42.805,6.029,0.059,-0.007,-0.031,103.0,107.0,101.0,13.4,1505.2,327.3,-0.8,1.8,2470.293,13.3,0.059,96.8